TimeMST,TemperatureF,Dew PointF,Humidity,Sea Level PressureIn,VisibilityMPH,Wind Direction,Wind SpeedMPH,Gust SpeedMPH,PrecipitationIn,Events,Conditions,WindDirDegrees,DateUTC
12:26 AM,-11.2,-20.2,64,30.35,1.8,Calm,Calm,-,N/A,,Haze,0,2013-01-06 07:26:00
12:34 AM,-11.2,-20.2,64,30.35,3.0,Calm,Calm,-,N/A,,Haze,0,2013-01-06 07:34:00
12:53 AM,-11.9,-20.9,64,30.74,8.0,Calm,Calm,-,N/A,,Overcast,0,2013-01-06 07:53:00
1:43 AM,-11.2,-18.4,70,30.34,1.2,Calm,Calm,-,N/A,,Haze,0,2013-01-06 08:43:00
1:45 AM,-11.2,-18.4,70,30.34,0.8,Calm,Calm,-,N/A,,Haze,0,2013-01-06 08:45:00
1:53 AM,-11.9,-18.9,71,30.73,0.5,Calm,Calm,-,N/A,,Haze,0,2013-01-06 08:53:00
1:56 AM,-13.0,-20.2,70,30.34,1.2,Calm,Calm,-,N/A,,Haze,0,2013-01-06 08:56:00
2:03 AM,-11.2,-20.2,64,30.34,2.5,Calm,Calm,-,N/A,,Haze,0,2013-01-06 09:03:00
2:14 AM,-11.2,-20.2,64,30.34,6.0,Calm,Calm,-,N/A,,Haze,0,2013-01-06 09:14:00
2:49 AM,-14.8,-22.0,70,30.33,5.0,Calm,Calm,-,N/A,,Haze,0,2013-01-06 09:49:00
2:53 AM,-15.0,-23.1,67,30.73,3.0,Calm,Calm,-,N/A,,Haze,0,2013-01-06 09:53:00
2:58 AM,-14.8,-23.8,64,30.33,1.8,Calm,Calm,-,N/A,,Haze,0,2013-01-06 09:58:00
3:07 AM,-14.8,-20.2,77,30.32,3.0,Calm,Calm,-,N/A,,Haze,0,2013-01-06 10:07:00
3:17 AM,-14.8,-22.0,70,30.32,2.0,Calm,Calm,-,N/A,,Haze,0,2013-01-06 10:17:00
3:32 AM,-16.6,-22.0,76,30.31,1.2,Calm,Calm,-,N/A,,Haze,0,2013-01-06 10:32:00
3:38 AM,-14.8,-20.2,77,30.31,3.0,Calm,Calm,-,N/A,,Haze,0,2013-01-06 10:38:00
3:53 AM,-15.0,-24.0,64,30.73,4.0,Calm,Calm,-,N/A,,Haze,0,2013-01-06 10:53:00
4:21 AM,-16.6,-23.8,70,30.30,10.0,Calm,Calm,-,N/A,,Scattered Clouds,0,2013-01-06 11:21:00
5:05 AM,-16.6,-25.6,64,30.28,10.0,Calm,Calm,-,N/A,,Scattered Clouds,0,2013-01-06 12:05:00
5:14 AM,-16.6,-25.6,64,30.29,10.0,Calm,Calm,-,N/A,,Mostly Cloudy,0,2013-01-06 12:14:00
5:53 AM,-14.1,-24.0,61,30.74,8.0,Calm,Calm,-,N/A,,Overcast,0,2013-01-06 12:53:00
6:29 AM,-13.0,-20.2,70,30.28,0.8,Calm,Calm,-,N/A,,Haze,0,2013-01-06 13:29:00
6:53 AM,-14.1,-20.0,75,30.75,0.2,Calm,Calm,-,N/A,,Haze,0,2013-01-06 13:53:00
7:01 AM,-13.0,-20.2,70,30.28,1.2,Calm,Calm,-,N/A,,Haze,0,2013-01-06 14:01:00
7:06 AM,-13.0,-20.2,70,30.28,0.8,Calm,Calm,-,N/A,,Haze,0,2013-01-06 14:06:00
7:53 AM,-11.0,-18.0,71,30.75,0.2,Calm,Calm,-,N/A,,Haze,0,2013-01-06 14:53:00
8:53 AM,-9.4,-16.6,71,30.28,1.2,Calm,Calm,-,N/A,,Haze,0,2013-01-06 15:53:00
9:11 AM,-7.6,-14.8,71,30.28,2.5,Calm,Calm,-,N/A,,Haze,0,2013-01-06 16:11:00
9:31 AM,-5.8,-14.8,65,30.28,3.0,Calm,Calm,-,N/A,,Haze,0,2013-01-06 16:31:00
9:49 AM,-5.8,-11.2,77,30.28,1.2,Calm,Calm,-,N/A,,Haze,0,2013-01-06 16:49:00
9:51 AM,-5.8,-11.2,77,30.28,0.8,Calm,Calm,-,N/A,,Haze,0,2013-01-06 16:51:00
9:53 AM,-4.0,-9.9,76,30.71,0.5,Calm,Calm,-,N/A,,Haze,0,2013-01-06 16:53:00
10:05 AM,-2.2,-9.4,71,30.27,1.5,Calm,Calm,-,N/A,,Haze,0,2013-01-06 17:05:00
10:12 AM,-2.2,-9.4,71,30.27,2.5,Calm,Calm,-,N/A,,Haze,0,2013-01-06 17:12:00
10:16 AM,-2.2,-9.4,71,30.27,1.0,Calm,Calm,-,N/A,,Haze,0,2013-01-06 17:16:00
10:27 AM,-2.2,-9.4,71,30.27,2.0,Calm,Calm,-,N/A,,Haze,0,2013-01-06 17:27:00
10:35 AM,-0.4,-7.6,72,30.26,6.0,Calm,Calm,-,N/A,,Haze,0,2013-01-06 17:35:00
10:53 AM,1.0,-6.0,72,30.67,8.0,Calm,Calm,-,N/A,,Clear,0,2013-01-06 17:53:00
11:53 AM,5.0,-8.0,55,30.60,10.0,Calm,Calm,-,N/A,,Clear,0,2013-01-06 18:53:00
12:53 PM,7.0,-4.0,61,30.56,10.0,Calm,Calm,-,N/A,,Clear,0,2013-01-06 19:53:00
1:53 PM,9.0,-0.9,64,30.53,10.0,Calm,Calm,-,N/A,,Clear,0,2013-01-06 20:53:00
2:53 PM,7.0,-2.0,67,30.53,10.0,Calm,Calm,-,N/A,,Clear,0,2013-01-06 21:53:00
3:53 PM,7.0,-0.9,70,30.53,10.0,Calm,Calm,-,N/A,,Clear,0,2013-01-06 22:53:00
4:53 PM,5.0,-2.0,73,30.53,10.0,Calm,Calm,-,N/A,,Clear,0,2013-01-06 23:53:00
5:53 PM,1.9,-4.0,76,30.54,10.0,Calm,Calm,-,N/A,,Partly Cloudy,0,2013-01-07 00:53:00
6:53 PM,1.9,-4.0,76,30.53,10.0,Calm,Calm,-,N/A,,Clear,0,2013-01-07 01:53:00
7:53 PM,1.9,-4.0,76,30.51,10.0,Calm,Calm,-,N/A,,Clear,0,2013-01-07 02:53:00
8:53 PM,1.0,-5.1,75,30.51,10.0,Calm,Calm,-,N/A,,Clear,0,2013-01-07 03:53:00
9:53 PM,1.0,-5.1,75,30.47,10.0,Calm,Calm,-,N/A,,Mostly Cloudy,0,2013-01-07 04:53:00
10:53 PM,1.9,-4.0,76,30.43,10.0,Calm,Calm,-,N/A,,Mostly Cloudy,0,2013-01-07 05:53:00
11:53 PM,-2.9,-7.1,82,30.45,10.0,Calm,Calm,-,N/A,,Clear,0,2013-01-07 06:53:00